Regional Weather Roundup
Issued by NWS

Home | Current Version | Previous Version | Text Only | Print | Product List | Glossary On
Versions: 1 2 3 4 5 6 7 8 9 10 11 12 13 14 15 16 17 18 19 20 21 22 23 24 25 26 27 28 29 30 31 32 33 34 35 36 37 38 39 40 41 42 43 44 45 46 47 48 49 50
000
ASUS44 KMEG 210510
RWRTN
TENNESSEE HOURLY STATE WEATHER ROUNDUP
NATIONAL WEATHER SERVICE MEMPHIS TN
1100 PM CST TUE FEB 20 2018

TNZ002-004-019-021-049-052-054-088>092-210600-
WEST TENNESSEE

CITY           SKY/WX    TMP DP  RH WIND       PRES   REMARKS
MEMPHIS INTL   MOCLDY    73  63  70 S21       30.09R
NWS MEMPHIS      N/A     73 N/A N/A MISG        N/A
JACKSON        FAIR      73  62  68 S16G33    30.11R
DYERSBURG      FAIR      72  62  71 S12G21    30.07R
SOMERVILLE     CLEAR     73  63  68 S10G22    30.10R
COVINGTON      PTCLDY    73  63  68 S15G24    30.08R
UNION CITY     CLEAR     72  61  68 S18G25    30.05S
BOLIVAR        PTCLDY    72  63  73 S14G22    30.12S
PARIS          CLEAR     72  61  68 S20G26    30.08F
HUNTINGDON     PTCLDY    72  61  68 S18G25    30.09S
LEXINGTON      PTCLDY    72  61  68 S8G17     30.15R
SELMER         PTCLDY    72  61  68 S13G21    30.15R
SAVANNAH       MOCLDY    72  61  68 S12G20    30.16R
$$

TNZ008-025-027-028-033-062-065-066-210600-
NORTH MIDDLE TENNESSEE

CITY           SKY/WX    TMP DP  RH WIND       PRES   REMARKS
NASHVILLE      FAIR      71  60  68 S16       30.19F
PORTLAND       PTCLDY    70  61  73 S16G28    30.17S
CLARKSVILLE    FAIR      72  57  59 S16G22    30.12S
SMYRNA         FAIR      70  62  76 S12       30.21S
COOKEVILLE     MOCLDY    68  61  77 S10G17    30.26R
GALLATIN       CLEAR     72  61  68 S16       30.21S
CROSSVILLE     CLOUDY    66  58  75 S12G21    30.31R
$$

TNZ061-075-076-078-094-096-097-210600-
SOUTH MIDDLE TENNESSEE

CITY           SKY/WX    TMP DP  RH WIND       PRES   REMARKS
FAYETTEVILLE   CLOUDY    70  63  78 MISG      30.26R
TULLAHOMA      MOCLDY    68  61  77 S12       30.26R
WINCHESTER     CLEAR     68  61  77 S16       30.27S
MCMINNVILLE    PTCLDY    70  61  73 S9        30.26R
COLUMBIA       MOCLDY    72  64  78 S12G20    30.18S
SHELBYVILLE    MOCLDY    70  63  78 S12G20    30.24R
$$

TNZ017-018-042-046-047-210600-
NORTHEAST TENNESSEE

CITY           SKY/WX    TMP DP  RH WIND       PRES   REMARKS
TRI CITIES     CLOUDY    65  54  67 S7        30.35S
ELIZABETHTON   FAIR      55  52  88 E5        30.38S
$$

TNZ012-013-036-069-073-074-210600-
CENTRAL EAST TENNESSEE

CITY           SKY/WX    TMP DP  RH WIND       PRES   REMARKS
KNOXVILLE      MOCLDY    67  57  70 S7        30.29S
OAK RIDGE      CLOUDY    68  60  75 VRB3      30.31S
DOWNTOWN KNOXV CLOUDY    63  55  77 W5        30.30S
GATLINBURG     CLOUDY    64  54  68 CALM      30.30S
MORRISTOWN     CLOUDY    66  54  63 CALM      30.32S
JACKSBORO      MOCLDY    70  57  64 S9        30.33S
$$

TNZ083-085-099-210600-
SOUTHEAST TENNESSEE

CITY           SKY/WX    TMP DP  RH WIND       PRES   REMARKS
CHATTANOOGA    MOCLDY    68  61  78 S6        30.32R
$$

SKY/WX REPORTED AS FAIR MEANS FEW OR NO CLOUDS BELOW
12 THOUSAND FEET.





USA.gov is the U.S. government's official web portal to all federal, state and local government web resources and services.